Location: Drocourt
(49.0571°N, 1.7669°E)
Time: 14:32:31
(UTC+00:00)

SR - Pass Details

Date: 13 April 2024
Orbit: 579 x 859 km, 66.7° (Epoch: 28 May)

Event Time Altitude Azimuth Distance (km) Brightness Sun altitude
Rises 11:04:23 0° 326° (NW) 3,057 ? 49.0°
Reaches altitude 10° 11:06:53 10° 332° (NNW) 2,092 ? 49.1°
Maximum altitude 11:11:25 48° 47° (NE) 828 ? 49.3°
Drops below altitude 10° 11:15:39 10° 122° (ESE) 1,946 ? 49.5°
Sets 11:17:54 0° 129° (SE) 2,821 ? 49.6°
